Location: Bittelbronn
(48.4454°N, 8.5870°E)
Time: 16:29:44
(UTC+00:00)

SAR-Lupe-4 - Pass Details

Date: 23 May 2024
Orbit: 476 x 482 km, 98.1° (Epoch: 02 April)

Event Time Altitude Azimuth Distance (km) Brightness Sun altitude
Rises 02:09:28 0° 16° (NNE) 2,553 8.6 -11.5°
Reaches altitude 10° 02:11:33 10° 20° (NNE) 1,668 7.5 -11.3°
Maximum altitude 02:15:07 65° 102° (ESE) 536 3.9 -10.9°
Enters shadow 02:18:38 10° 185° (S) 1,649 5.8 -10.5°
